Location: Dackenheim
(49.5215°N, 8.1854°E)
Time: 11:25:57
(UTC+00:00)

STARS - Visible Passes

Search period start: 15 March 2026 00:00
Search period end: 25 March 2026 00:00
Orbit: 575 x 589 km, 98.1° (Epoch: 14 March)

Date Brightness Start Highest point End Pass type
(mag) Time Alt. Az. Time Alt. Az. Time Alt. Az.
15 Mar ? 02:15:14 10° N 02:15:59 15° N 02:15:59 15° N visible
16 Mar ? 02:20:55 10° N 02:21:47 15° N 02:21:47 15° N visible
17 Mar ? 02:26:37 10° N 02:27:35 16° N 02:27:35 16° N visible
18 Mar ? 00:56:55 10° NNE 00:56:59 10° NNE 00:56:59 10° NNE visible
18 Mar ? 02:32:18 10° N 02:33:22 16° NNW 02:33:22 16° NNW visible
19 Mar ? 01:02:25 10° NNE 01:02:46 12° NNE 01:02:46 12° NNE visible
19 Mar ? 02:37:58 10° N 02:39:09 16° NNW 02:39:09 16° NNW visible
20 Mar ? 01:07:56 10° NNE 01:08:32 14° NNE 01:08:32 14° NNE visible
20 Mar ? 02:43:40 10° N 02:44:55 16° NNW 02:44:55 16° NNW visible
21 Mar ? 01:13:27 10° NNE 01:14:17 15° NNE 01:14:17 15° NNE visible
21 Mar ? 02:49:21 10° NNW 02:50:40 16° NNW 02:50:40 16° NNW visible
22 Mar ? 01:18:58 10° NNE 01:20:02 17° NNE 01:20:02 17° NNE visible
22 Mar ? 02:55:03 10° NNW 02:56:25 16° NNW 02:56:25 16° NNW visible
23 Mar ? 01:24:30 10° NNE 01:25:46 19° NNE 01:25:46 19° NNE visible
23 Mar ? 03:00:44 10° NNW 03:02:09 15° NW 03:02:09 15° NW visible
24 Mar ? 01:30:00 10° NNE 01:31:29 21° NNE 01:31:29 21° NNE visible
24 Mar ? 03:06:27 10° NNW 03:07:52 14° NW 03:07:52 14° NW visible
